This is the latest recevied weather packets stored in our database for station/object KF6ILA. If no packets are shown the sender has not sent any weather packets the latest 1 day(s).
| Time | Temp. | Humidity | Pressure | Rain* | Wind** | Luminosity | Snow |
|---|---|---|---|---|---|---|---|
| 1778011725 | 6.67° C | 100% | 1011.7 hPa | 0 mm | 7.6 m/s, 265° | 926 W/m² | - |
| 1778011428 | 6.67° C | 100% | 1011.6 hPa | 0 mm | 8.49 m/s, 267° | 886 W/m² | - |
| 1778011131 | 6.67° C | 100% | 1012 hPa | 0 mm | 7.6 m/s, 243° | 640 W/m² | - |
| 1778010834 | 6.67° C | 100% | 1011.8 hPa | 0 mm | 5.81 m/s, 272° | 401 W/m² | - |
| 1778010537 | 6.11° C | 100% | 1011.8 hPa | 0 mm | 6.71 m/s, 261° | 211 W/m² | - |
| 1778010240 | 6.11° C | 100% | 1011.9 hPa | 0.25 mm | 8.94 m/s, 269° | 410 W/m² | - |
| 1778009943 | 6.11° C | 100% | 1011.8 hPa | 0.25 mm | 8.94 m/s, 262° | 448 W/m² | - |
| 1778009646 | 6.11° C | 100% | 1011.9 hPa | 0.25 mm | 7.6 m/s, 256° | 323 W/m² | - |
| 1778009349 | 6.11° C | 100% | 1012 hPa | 0.25 mm | 8.94 m/s, 256° | 450 W/m² | - |
| 1778009052 | 6.11° C | 100% | 1011.9 hPa | 0.25 mm | 8.94 m/s, 263° | 636 W/m² | - |
| 1778008755 | 5.56° C | 100% | 1012.1 hPa | 0.25 mm | 9.83 m/s, 255° | 606 W/m² | - |
| 1778008458 | 5.56° C | 100% | 1011.9 hPa | 0.25 mm | 9.39 m/s, 258° | 496 W/m² | - |
| 1778008161 | 5.56° C | 100% | 1011.8 hPa | 0.25 mm | 9.39 m/s, 253° | 434 W/m² | - |
| 1778007865 | 5.56° C | 100% | 1011.9 hPa | 0.51 mm | 8.49 m/s, 254° | 383 W/m² | - |
| 1778007567 | 5.56° C | 100% | 1011.8 hPa | 0.51 mm | 7.15 m/s, 257° | 399 W/m² | - |
| 1778007271 | 5.56° C | 100% | 1011.9 hPa | 0.51 mm | 6.26 m/s, 253° | 443 W/m² | - |
| 1778006973 | 5.56° C | 100% | 1011.8 hPa | 0.51 mm | 7.6 m/s, 258° | 197 W/m² | - |
| 1778006676 | 5.56° C | 100% | 1011.8 hPa | 0.51 mm | 5.81 m/s, 264° | 230 W/m² | - |
| 1778006379 | 5.56° C | 100% | 1011.8 hPa | 0.51 mm | 5.36 m/s, 259° | 195 W/m² | - |
| 1778006082 | 5.56° C | 100% | 1011.8 hPa | 0.51 mm | 5.81 m/s, 268° | 244 W/m² | - |
| 1778005785 | 5.56° C | 100% | 1011.8 hPa | 0.51 mm | 5.81 m/s, 268° | 185 W/m² | - |
| 1778005488 | 5.56° C | 100% | 1011.6 hPa | 0.76 mm | 7.6 m/s, 251° | 195 W/m² | - |
| 1778005191 | 5.56° C | 100% | 1011.7 hPa | 0.76 mm | 7.15 m/s, 256° | 167 W/m² | - |
| 1778004895 | 5° C | 100% | 1011.6 hPa | 0.76 mm | 7.15 m/s, 259° | 178 W/m² | - |
| 1778004597 | 5.56° C | 100% | 1011.6 hPa | 0.76 mm | 6.71 m/s, 259° | 162 W/m² | - |
* Rain latest hour (hover to see other rain measurements)
** Current wind speed in m/s (hover to see current wind gust speed)